Fort Knox, KY

6:00 PM EDT on June 25, 2017 (GMT -0400)
Godman Army Air Field

Weather History for KFTK - January, 2013

Change the Weather History Date:

Tuesday, January 29, 2013

  Actual Average Record
Temperature  
Mean Temperature 59 °F -  
Max Temperature 64 °F 41 °F 68 °F (2002)
Min Temperature 54 °F 25 °F 0 °F (2014)
Degree Days  
Heating Degree Days 6    
Growing Degree Days 9 (Base 50)    
Moisture  
Dew Point 55 °F    
Average Humidity 84    
Maximum Humidity 89    
Minimum Humidity 80    
Precipitation  
Precipitation 0.00 in - - ()
Sea Level Pressure  
Sea Level Pressure 29.90 in    
Wind  
Wind Speed 14 mph (South)    
Max Wind Speed 28 mph    
Max Gust Speed 36 mph    
Visibility 10 miles    
Events      
Averages and records for this station are not official NWS values.
T = Trace of Precipitation, MM = Missing Value Source: NWS Daily Summary

Daily Weather History Graph

Daily Weather History Graph

Search for Another Location

Airport or City:

Trip Planner

Search our weather history database for the weather conditions in past years. The results will help you decide how hot, cold, wet, or windy it might be!

Date:

Astronomy

Jan. 29, 2013 Rise Set
Actual Time 7:50 AM EST 6:04 PM EST
Civil Twilight 7:22 AM EST 6:32 PM EST
Nautical Twilight 6:50 AM EST 7:03 PM EST
Astronomical Twilight 6:19 AM EST 7:34 PM EST
Moon 8:55 PM EST (1/29) 8:50 AM EST (1/29)
Length of Visible Light 11h 09m
Length of Day
10h 13m
Waning Gibbous, 94% of the Moon is Illuminated
Jan 29
Waning Gibbous
Feb 3
Last Quarter
Feb 10
New
Feb 17
First Quarter
Feb 25
Full

Hourly Weather History & Observations

Time (EST) Temp. Dew Point Humidity Pressure Visibility Wind Dir Wind Speed Gust Speed Precip Events Conditions
12:55 AM 57.2 °F 51.4 °F 81% 30.08 in 10.0 mi South 15.0 mph - N/A   Overcast
1:55 AM 57.0 °F 51.3 °F 81% 30.07 in 10.0 mi SSW 15.0 mph - N/A   Mostly Cloudy
2:55 AM 55.9 °F 51.1 °F 84% 30.06 in 10.0 mi South 10.4 mph - N/A   Mostly Cloudy
3:55 AM 55.0 °F 50.7 °F 85% 30.04 in 10.0 mi South 10.4 mph - N/A   Mostly Cloudy
4:55 AM 54.1 °F 50.5 °F 88% 30.01 in 10.0 mi South 8.1 mph - N/A   Scattered Clouds
5:55 AM 54.5 °F 51.4 °F 89% 30.00 in 10.0 mi South 10.4 mph - N/A   Partly Cloudy
6:55 AM 55.6 °F 52.2 °F 88% 30.01 in 10.0 mi South 9.2 mph - N/A   Overcast
7:55 AM 56.3 °F 52.9 °F 88% 30.01 in 10.0 mi South 11.5 mph - N/A   Overcast
8:02 AM 57.2 °F 53.6 °F 88% 30.01 in 10.0 mi South 8.1 mph - N/A   Overcast
8:55 AM 57.4 °F 53.6 °F 87% 30.02 in 10.0 mi SSW 11.5 mph 18.4 mph N/A   Overcast
9:55 AM 58.5 °F 54.7 °F 87% 30.00 in 8.0 mi South 12.7 mph - N/A   Overcast
10:55 AM 60.8 °F 55.6 °F 83% 29.98 in 10.0 mi South 17.3 mph 23.0 mph N/A   Overcast
11:12 AM 60.8 °F 55.4 °F 82% 29.97 in 10.0 mi South 18.4 mph - N/A   Overcast
11:55 AM 61.0 °F 55.2 °F 81% 29.97 in 10.0 mi South 17.3 mph 29.9 mph N/A   Overcast
12:55 PM 61.0 °F 56.1 °F 84% 29.94 in 10.0 mi South 18.4 mph 25.3 mph N/A   Overcast
1:55 PM 61.2 °F 56.7 °F 85% 29.90 in 10.0 mi South 15.0 mph - N/A   Overcast
2:17 PM 60.8 °F 57.2 °F 88% 29.87 in 10.0 mi South 13.8 mph - N/A   Overcast
2:55 PM 62.6 °F 57.0 °F 82% 29.85 in 10.0 mi South 13.8 mph - N/A   Overcast
3:55 PM 63.5 °F 57.4 °F 80% 29.83 in 10.0 mi South 17.3 mph 21.9 mph N/A   Overcast
4:55 PM 64.0 °F 57.7 °F 80% 29.81 in 10.0 mi South 13.8 mph - N/A   Overcast
5:55 PM 64.2 °F 58.1 °F 80% 29.80 in 10.0 mi South 17.3 mph 24.2 mph N/A   Overcast
6:55 PM 64.6 °F 58.6 °F 81% 29.77 in 10.0 mi SSE 23.0 mph 26.5 mph N/A   Overcast
7:55 PM 64.9 °F 58.8 °F 81% 29.75 in 10.0 mi South 23.0 mph 33.4 mph N/A   Overcast
8:55 PM 64.8 °F 58.8 °F 81% 29.73 in 10.0 mi South 18.4 mph 27.6 mph N/A   Overcast
9:55 PM 64.0 °F 58.6 °F 83% 29.68 in 10.0 mi South 18.4 mph 28.8 mph N/A   Overcast
10:55 PM 64.8 °F 59.0 °F 82% 29.62 in 10.0 mi SSE 20.7 mph 33.4 mph N/A   Mostly Cloudy
11:55 PM 64.9 °F 58.6 °F 80% 29.57 in 10.0 mi SSE 27.6 mph 35.7 mph N/A   Clear